Fort Riley, KS

3:38 PM CDT on September 28, 2016 (GMT -0500)
Marshall Army Air Field

Weather History for KFRI - May, 2013

Change the Weather History Date:

Saturday, May 25, 2013

  Actual Average (KMHK) Record (KMHK)
Temperature  
Mean Temperature 75 °F 67 °F  
Max Temperature 84 °F 79 °F 93 °F (2006)
Min Temperature 67 °F 54 °F 42 °F (2002)
Degree Days  
Heating Degree Days 0 2  
Month to date heating degree days 114  
Since 1 July heating degree days 5295  
Cooling Degree Days 10 4  
Month to date cooling degree days 56  
Year to date cooling degree days 73  
Growing Degree Days 25 (Base 50)    
Moisture  
Dew Point 65 °F    
Average Humidity 75    
Maximum Humidity 96    
Minimum Humidity 51    
Precipitation  
Precipitation 0.00 in 0.16 in 1.07 in (2011)
Month to date precipitation 3.45  
Year to date precipitation 10.17  
Sea Level Pressure  
Sea Level Pressure 30.03 in    
Wind  
Wind Speed 13 mph (South)    
Max Wind Speed 25 mph    
Max Gust Speed 34 mph    
Visibility 10 miles    
Events      
T = Trace of Precipitation, MM = Missing Value Source: NWS Daily Summary

Daily Weather History Graph

Daily Weather History Graph

Search for Another Location

Airport or City:

Trip Planner

Search our weather history database for the weather conditions in past years. The results will help you decide how hot, cold, wet, or windy it might be!

Date:

Astronomy

May. 25, 2013 Rise Set
Actual Time 6:06 AM CDT 8:42 PM CDT
Civil Twilight 5:35 AM CDT 9:13 PM CDT
Nautical Twilight 4:56 AM CDT 9:51 PM CDT
Astronomical Twilight 4:13 AM CDT 10:35 PM CDT
Moon 9:31 PM CDT (5/25) 6:34 AM CDT (5/25)
Length of Visible Light 15h 37m
Length of Day
14h 35m
Full, 100% of the Moon is Illuminated
May 25
Full
May 31
Last Quarter
Jun 8
New
Jun 16
First Quarter
Jun 23
Full

Hourly Weather History & Observations

Time (CDT) Temp. Heat Index Dew Point Humidity Pressure Visibility Wind Dir Wind Speed Gust Speed Precip Events Conditions
12:58 AM 68.9 °F - 61.9 °F 78% 30.07 in 10.0 mi SSE 10.4 mph 18.4 mph N/A   Overcast
1:58 AM 67.6 °F - 63.1 °F 85% 30.05 in 10.0 mi SSE 12.7 mph - N/A   Scattered Clouds
2:18 AM 68.0 °F - 64.4 °F 88% 30.05 in 10.0 mi SSE 13.8 mph - N/A   Mostly Cloudy
2:33 AM 68.0 °F - 64.4 °F 88% 30.05 in 10.0 mi SSE 10.4 mph - N/A   Overcast
2:58 AM 68.0 °F - 64.9 °F 90% 30.04 in 10.0 mi South 9.2 mph 19.6 mph N/A   Mostly Cloudy
3:03 AM 68.0 °F - 64.4 °F 88% 30.07 in 10.0 mi South 9.2 mph - N/A   Mostly Cloudy
3:08 AM 68.0 °F - 64.4 °F 88% 30.07 in 10.0 mi South 11.5 mph - N/A   Mostly Cloudy
3:13 AM 68.0 °F - 64.4 °F 88% 30.08 in 10.0 mi South 12.7 mph - N/A   Overcast
3:58 AM 69.8 °F - 66.2 °F 88% 30.06 in 10.0 mi South 12.7 mph - N/A   Mostly Cloudy
4:53 AM 69.8 °F - 66.2 °F 88% 30.07 in 10.0 mi South 16.1 mph 23.0 mph N/A   Mostly Cloudy
4:58 AM 70.0 °F - 66.2 °F 88% 30.04 in 10.0 mi South 13.8 mph 23.0 mph N/A   Mostly Cloudy
5:13 AM 69.8 °F - 66.2 °F 88% 30.08 in 10.0 mi South 13.8 mph - N/A   Mostly Cloudy
5:23 AM 69.8 °F - 66.2 °F 88% 30.08 in 10.0 mi South 13.8 mph 20.7 mph N/A   Mostly Cloudy
5:43 AM 69.8 °F - 68.0 °F 94% 30.06 in 10.0 mi South 17.3 mph - N/A   Mostly Cloudy
5:58 AM 70.2 °F - 67.3 °F 91% 30.04 in 10.0 mi South 12.7 mph - N/A   Partly Cloudy
6:58 AM 69.4 °F - 68.4 °F 96% 30.08 in 10.0 mi South 12.7 mph - N/A   Mostly Cloudy
7:58 AM 69.8 °F - 67.5 °F 92% 30.08 in 10.0 mi South 11.5 mph - N/A   Overcast
8:58 AM 73.8 °F - 64.8 °F 73% 30.08 in 10.0 mi SSW 15.0 mph - N/A   Mostly Cloudy
9:58 AM 75.7 °F - 63.3 °F 65% 30.06 in 10.0 mi SSW 19.6 mph 24.2 mph N/A   Mostly Cloudy
10:58 AM 75.7 °F - 63.7 °F 66% 30.06 in 10.0 mi SSW 15.0 mph - N/A   Overcast
11:58 AM 79.3 °F - 64.2 °F 60% 30.06 in 10.0 mi South 12.7 mph 21.9 mph N/A   Partly Cloudy
12:58 PM 80.2 °F 81.9 °F 64.2 °F 58% 30.04 in 10.0 mi South 19.6 mph 24.2 mph N/A   Partly Cloudy
1:58 PM 82.6 °F 83.9 °F 64.0 °F 53% 30.00 in 10.0 mi South 25.3 mph 34.5 mph N/A   Partly Cloudy
2:58 PM 83.5 °F 84.9 °F 64.2 °F 52% 29.97 in 10.0 mi South 23.0 mph 29.9 mph N/A   Scattered Clouds
3:58 PM 83.1 °F 84.2 °F 63.5 °F 51% 29.96 in 10.0 mi South 21.9 mph 29.9 mph N/A   Scattered Clouds
4:58 PM 81.9 °F 83.2 °F 63.5 °F 54% 29.95 in 10.0 mi South 21.9 mph 28.8 mph N/A   Mostly Cloudy
5:58 PM 82.2 °F 83.5 °F 63.3 °F 53% 29.94 in 10.0 mi South 19.6 mph 28.8 mph N/A   Partly Cloudy
6:58 PM 81.7 °F 82.9 °F 63.1 °F 53% 29.93 in 10.0 mi South 20.7 mph 25.3 mph N/A   Partly Cloudy
7:58 PM 80.1 °F 81.6 °F 63.5 °F 57% 29.92 in 10.0 mi South 12.7 mph - N/A   Partly Cloudy
8:58 PM 77.2 °F - 64.2 °F 64% 29.95 in 10.0 mi South 9.2 mph - N/A   Scattered Clouds
9:58 PM 76.1 °F - 64.9 °F 68% 29.96 in 10.0 mi SSE 13.8 mph - N/A   Mostly Cloudy
10:58 PM 73.9 °F - 65.5 °F 75% 29.98 in 10.0 mi SSE 8.1 mph - N/A   Clear
11:58 PM 72.3 °F - 66.2 °F 81% 29.98 in 10.0 mi SSE 10.4 mph - N/A   Clear